This demonstration page uses our WeatherBlox Daily Observations layout. Learn more.

38.88101, -77.10428

Hourly Observations for August 9, 2020

Temp ( °F °C ) Dew Point ( °F °C ) Humidity (%) Winds ( mph kmh ) Pressure ( in mb ) Visibility ( mi km ) Precip ( " mm )
12:52 am 00:52 Mostly Clear 77 25 73 22.8 88 88 S 5 7 30.14 1021 10 16.0934 0 0
1:52 am 01:52 Mostly Clear 76 24.4 73 22.8 91 91 SW 5 7 30.14 1021 10 16.0934 0 0
2:52 am 02:52 Clear 76 24.4 73 22.8 91 91 SSW 7 11 30.14 1021 10 16.0934 0 0
3:52 am 03:52 Mostly Clear 76 24.4 73 22.8 91 91 WSW 3 6 30.14 1021 10 16.0934 0 0
4:52 am 04:52 Mostly Clear 75 23.9 72 22.2 90 90 SW 3 6 30.13 1020 10 16.0934 0 0
5:52 am 05:52 Partly Cloudy 74 23.3 72 22.2 94 94 SSW 3 6 30.14 1021 10 16.0934 0 0
6:52 am 06:52 Partly Cloudy 75 23.9 72 22.2 90 90 S 3 6 30.14 1021 10 16.0934 0 0
7:52 am 07:52 Mostly Cloudy 77 25 72 22.2 85 85 S 5 7 30.16 1021 10 16.0934 0 0
8:52 am 08:52 Partly Cloudy 80 26.7 72 22.2 76 76 SSW 7 11 30.16 1021 10 16.0934 0 0
9:52 am 09:52 Partly Cloudy 81 27.2 73 22.8 77 77 SSE 6 9 30.15 1021 10 16.0934 0 0
10:52 am 10:52 Partly Cloudy 84 28.9 74 23.3 72 72 S 8 13 30.14 1021 10 16.0934 0 0
11:52 am 11:52 Mostly Cloudy 85 29.4 73 22.8 68 68 SSE 9 15 30.14 1021 10 16.0934 0 0
12:52 pm 12:52 Mostly Cloudy 85 29.4 73 22.8 68 68 SSE 12 19 30.12 1020 10 16.0934 0 0
1:52 pm 13:52 Mostly Cloudy 87 30.6 72 22.2 61 61 SSE 13 20 30.1 1019 10 16.0934 0 0
2:45 pm 14:45 Mostly Cloudy with Thunderstorms 81 27.2 72 22.2 74 74 NNW 10 17 30.1 1019 10 16.0934 0 0
2:52 pm 14:52 Cloudy with Thunderstorms 81 27.2 73 22.8 77 77 NNE 13 20 30.1 1019 10 16.0934 0 0
3:14 pm 15:14 Mostly Sunny 87 30.6 74 23.3 65 65 VRB 3 6 30.08 1019 10 16.0934 0 0
3:52 pm 15:52 Mostly Cloudy 87 30.6 72 22.2 61 61 SE 5 7 30.07 1018 10 16.0934 0 0
4:12 pm 16:12 Mostly Cloudy with Nearby Thunderstorms 85 29.4 71 21.7 63 63 S 7 11 30.07 1018 10 16.0934 0 0
4:52 pm 16:52 Mostly Cloudy 86 30 73 22.8 65 65 S 5 7 30.06 1018 10 16.0934 0 0
5:26 pm 17:26 Mostly Cloudy with Nearby Thunderstorms 87 30.6 73 22.8 63 63 S 6 9 30.06 1018 10 16.0934 0 0
5:41 pm 17:41 Mostly Cloudy 86 30 74 23.3 67 67 S 8 13 30.06 1018 10 16.0934 0 0
5:52 pm 17:52 Mostly Cloudy 87 30.6 73 22.8 63 63 S 7 11 30.06 1018 10 16.0934 0 0
6:52 pm 18:52 Mostly Cloudy 85 29.4 73 22.8 68 68 S 7 11 30.06 1018 10 16.0934 0.001 0.001
7:52 pm 19:52 Mostly Cloudy 82 27.8 72 22.2 72 72 SSW 6 9 30.06 1018 10 16.0934 0 0
8:52 pm 20:52 Partly Cloudy 82 27.8 74 23.3 77 77 S 3 6 30.07 1018 10 16.0934 0 0
9:52 pm 21:52 Mostly Cloudy 81 27.2 74 23.3 79 79 S 5 7 30.08 1019 10 16.0934 0 0
10:52 pm 22:52 Mostly Cloudy 81 27.2 76 24.4 85 85 S 7 11 30.09 1019 10 16.0934 0 0
11:52 pm 23:52 Mostly Cloudy 80 26.7 76 24.4 87 87 SSW 6 9 30.08 1019 10 16.0934 0 0

Powered by AerisWeather